When you browse on this site, cookies collect data to enhance your experience and personalize the content and advertising you see.
Visit our Privacy Policy to learn more. By continuing to use the site, you agree to this use of cookies and data.
  • In Deutschland
  • Länderverzeichnis
  • Für 7 Tage
  • Wassertemperatur
  • Satellitenkarten
  • Wetterkarte
  • Widgets
  • user-avatar
    Anmelden

    Stündliche Wetter Novi Ligure

    Heute, 21 Februar, Donnerstag

    Zeit Temperatur Niederschläge Wind Luftdruck Luftfeuchtigkeit
    00:00 +8°C° 0 mm 1 m/S 751 mmHg 88%
    01:00 +8°C° 0 mm 1 m/S 751 mmHg 88%
    02:00 +8°C° 0 mm 1 m/S 751 mmHg 88%
    03:00 +7°C° 0 mm 1 m/S 751 mmHg 87%
    04:00 +7°C° 0 mm 1 m/S 751 mmHg 87%
    05:00 +7°C° 0 mm 1 m/S 751 mmHg 86%
    06:00 +6°C° 0 mm 0 m/S 751 mmHg 86%
    07:00 +6°C° 0 mm 0 m/S 751 mmHg 86%
    08:00 +7°C° 0 mm 0 m/S 751 mmHg 80%
    09:00 +9°C° 0 mm 0 m/S 751 mmHg 74%
    10:00 +10°C° 0 mm 0 m/S 751 mmHg 68%
    11:00 +12°C° 0 mm 0 m/S 751 mmHg 64%
    12:00 +13°C° 0 mm 0 m/S 751 mmHg 60%
    13:00 +14°C° 0 mm 0 m/S 751 mmHg 56%
    14:00 +15°C° 0 mm 1 m/S 751 mmHg 56%
    15:00 +15°C° 0 mm 1 m/S 751 mmHg 55%
    16:00 +15°C° 0 mm 1 m/S 751 mmHg 55%
    17:00 +14°C° 0 mm 1 m/S 751 mmHg 63%
    18:00 +12°C° 0 mm 1 m/S 751 mmHg 70%
    19:00 +11°C° 0 mm 1 m/S 751 mmHg 78%
    20:00 +11°C° 0 mm 1 m/S 751 mmHg 80%
    21:00 +9°C° 0 mm 2 m/S 751 mmHg 82%
    22:00 +9°C° 0 mm 2 m/S 751 mmHg 83%
    23:00 +8°C° 0 mm 2 m/S 751 mmHg 83%

    Morgen, 22 Februar, Freitag

    Zeit Temperatur Niederschläge Wind Luftdruck Luftfeuchtigkeit
    00:00 +9°C° 0 mm 1 m/S 751 mmHg 82%
    01:00 +9°C° 0 mm 1 m/S 751 mmHg 82%
    02:00 +9°C° 0 mm 1 m/S 751 mmHg 82%
    03:00 +8°C° 0 mm 1 m/S 751 mmHg 81%
    04:00 +8°C° 0 mm 1 m/S 751 mmHg 81%
    05:00 +8°C° 0 mm 1 m/S 750 mmHg 81%
    06:00 +8°C° 0 mm 1 m/S 750 mmHg 80%
    07:00 +8°C° 0 mm 1 m/S 750 mmHg 79%
    08:00 +9°C° 0 mm 1 m/S 750 mmHg 73%
    09:00 +11°C° 0 mm 1 m/S 750 mmHg 67%
    10:00 +13°C° 0 mm 1 m/S 750 mmHg 60%
    11:00 +14°C° 0 mm 1 m/S 750 mmHg 56%
    12:00 +15°C° 0 mm 1 m/S 750 mmHg 51%
    13:00 +18°C° 0 mm 1 m/S 749 mmHg 46%
    14:00 +18°C° 0 mm 1 m/S 749 mmHg 45%
    15:00 +18°C° 0 mm 1 m/S 749 mmHg 44%
    16:00 +18°C° 0 mm 1 m/S 749 mmHg 43%
    17:00 +16°C° 0 mm 1 m/S 749 mmHg 48%
    18:00 +14°C° 0 mm 1 m/S 750 mmHg 54%
    19:00 +12°C° 0 mm 1 m/S 751 mmHg 59%
    20:00 +12°C° 0 mm 1 m/S 751 mmHg 60%
    21:00 +11°C° 0 mm 1 m/S 752 mmHg 61%
    22:00 +11°C° 0 mm 1 m/S 752 mmHg 62%
    23:00 +10°C° 0 mm 1 m/S 752 mmHg 62%

    übermorgen, 23 Februar, Samstag

    Zeit Temperatur Niederschläge Wind Luftdruck Luftfeuchtigkeit
    00:00 +10°C° 0 mm 1 m/S 752 mmHg 62%
    01:00 +10°C° 0 mm 1 m/S 752 mmHg 62%
    02:00 +9°C° 0 mm 1 m/S 753 mmHg 64%
    03:00 +9°C° 0 mm 1 m/S 753 mmHg 65%
    04:00 +8°C° 0 mm 1 m/S 753 mmHg 67%
    05:00 +8°C° 0 mm 1 m/S 753 mmHg 69%
    06:00 +7°C° 0 mm 1 m/S 753 mmHg 72%
    07:00 +7°C° 0 mm 1 m/S 753 mmHg 74%
    08:00 +8°C° 0 mm 1 m/S 753 mmHg 70%
    09:00 +10°C° 0 mm 1 m/S 754 mmHg 66%
    10:00 +11°C° 0 mm 1 m/S 754 mmHg 62%
    11:00 +12°C° 0 mm 2 m/S 754 mmHg 59%
    12:00 +13°C° 0 mm 2 m/S 754 mmHg 55%
    13:00 +13°C° 0 mm 3 m/S 754 mmHg 52%
    14:00 +13°C° 0 mm 3 m/S 754 mmHg 52%
    15:00 +13°C° 0 mm 3 m/S 754 mmHg 52%
    16:00 +12°C° 0 mm 3 m/S 754 mmHg 52%
    17:00 +11°C° 0 mm 3 m/S 754 mmHg 57%
    18:00 +9°C° 0 mm 2 m/S 754 mmHg 62%
    19:00 +8°C° 0 mm 2 m/S 754 mmHg 67%
    20:00 +7°C° 0 mm 2 m/S 755 mmHg 68%
    21:00 +6°C° 0 mm 2 m/S 755 mmHg 69%
    22:00 +5°C° 0 mm 2 m/S 756 mmHg 69%
    23:00 +5°C° 0 mm 2 m/S 756 mmHg 68%

    24 Februar, Sonntag

    Zeit Temperatur Niederschläge Wind Luftdruck Luftfeuchtigkeit
    00:00 +4°C° 0 mm 2 m/S 756 mmHg 68%
    01:00 +4°C° 0 mm 2 m/S 756 mmHg 67%
    02:00 +3°C° 0 mm 2 m/S 756 mmHg 65%
    03:00 +3°C° 0 mm 2 m/S 756 mmHg 64%
    04:00 +3°C° 0 mm 2 m/S 756 mmHg 63%
    05:00 +2°C° 0 mm 2 m/S 755 mmHg 63%
    06:00 +3°C° 0 mm 1 m/S 755 mmHg 62%
    07:00 +3°C° 0 mm 1 m/S 755 mmHg 62%
    08:00 +3°C° 0 mm 2 m/S 756 mmHg 58%
    09:00 +5°C° 0 mm 2 m/S 756 mmHg 53%
    10:00 +6°C° 0 mm 2 m/S 756 mmHg 49%
    11:00 +7°C° 0 mm 2 m/S 756 mmHg 47%
    12:00 +8°C° 0 mm 3 m/S 756 mmHg 45%
    13:00 +9°C° 0 mm 3 m/S 756 mmHg 43%
    14:00 +10°C° 0 mm 3 m/S 755 mmHg 44%
    15:00 +10°C° 0 mm 3 m/S 755 mmHg 45%
    16:00 +10°C° 0 mm 3 m/S 755 mmHg 46%
    17:00 +9°C° 0 mm 2 m/S 755 mmHg 51%
    18:00 +7°C° 0 mm 2 m/S 755 mmHg 56%
    19:00 +7°C° 0 mm 1 m/S 755 mmHg 61%
    20:00 +7°C° 0 mm 1 m/S 755 mmHg 62%
    21:00 +6°C° 0 mm 1 m/S 755 mmHg 62%
    22:00 +6°C° 0 mm 1 m/S 755 mmHg 63%
    23:00 +6°C° 0 mm 1 m/S 755 mmHg 63%

    25 Februar, Montag

    Zeit Temperatur Niederschläge Wind Luftdruck Luftfeuchtigkeit
    00:00 +6°C° 0 mm 1 m/S 755 mmHg 63%
    01:00 +4°C° 0 mm 0 m/S 755 mmHg 62%
    02:00 +4°C° 0 mm 0 m/S 754 mmHg 62%
    03:00 +4°C° 0 mm 0 m/S 753 mmHg 61%
    04:00 +4°C° 0 mm 0 m/S 753 mmHg 61%
    05:00 +4°C° 0 mm 0 m/S 752 mmHg 61%
    06:00 +5°C° 0 mm 1 m/S 752 mmHg 60%
    07:00 +5°C° 0 mm 1 m/S 752 mmHg 60%
    08:00 +7°C° 0 mm 1 m/S 752 mmHg 56%
    09:00 +8°C° 0 mm 1 m/S 752 mmHg 51%
    10:00 +10°C° 0 mm 1 m/S 752 mmHg 47%
    11:00 +11°C° 0 mm 1 m/S 751 mmHg 45%
    12:00 +13°C° 0 mm 2 m/S 751 mmHg 42%
    13:00 +14°C° 0 mm 2 m/S 750 mmHg 40%
    14:00 +14°C° 0 mm 2 m/S 750 mmHg 41%
    15:00 +14°C° 0 mm 2 m/S 750 mmHg 43%
    16:00 +14°C° 0 mm 2 m/S 749 mmHg 44%
    17:00 +12°C° 0 mm 2 m/S 750 mmHg 50%
    18:00 +10°C° 0 mm 3 m/S 751 mmHg 56%
    19:00 +8°C° 0 mm 3 m/S 752 mmHg 61%
    20:00 +8°C° 0 mm 3 m/S 753 mmHg 63%
    21:00 +7°C° 0 mm 3 m/S 754 mmHg 66%
    22:00 +5°C° 0 mm 3 m/S 755 mmHg 68%
    23:00 +5°C° 0 mm 3 m/S 755 mmHg 69%

    26 Februar, Dienstag

    Zeit Temperatur Niederschläge Wind Luftdruck Luftfeuchtigkeit
    00:00 +5°C° 0 mm 2 m/S 755 mmHg 71%
    01:00 +4°C° 0 mm 2 m/S 755 mmHg 72%
    02:00 +4°C° 0 mm 2 m/S 755 mmHg 71%
    03:00 +4°C° 0 mm 2 m/S 754 mmHg 71%
    04:00 +5°C° 0 mm 1 m/S 754 mmHg 70%
    05:00 +4°C° 0 mm 1 m/S 754 mmHg 70%
    06:00 +4°C° 0 mm 1 m/S 754 mmHg 69%
    07:00 +4°C° 0 mm 1 m/S 754 mmHg 68%
    08:00 +6°C° 0 mm 1 m/S 754 mmHg 63%
    09:00 +8°C° 0 mm 1 m/S 754 mmHg 58%
    10:00 +10°C° 0 mm 1 m/S 754 mmHg 52%
    11:00 +10°C° 0 mm 2 m/S 754 mmHg 49%
    12:00 +12°C° 0 mm 2 m/S 753 mmHg 45%
    13:00 +14°C° 0 mm 2 m/S 753 mmHg 42%
    14:00 +14°C° 0 mm 2 m/S 753 mmHg 41%
    15:00 +15°C° 0 mm 2 m/S 752 mmHg 40%
    16:00 +15°C° 0 mm 1 m/S 751 mmHg 40%
    17:00 +13°C° 0 mm 1 m/S 751 mmHg 44%
    18:00 +12°C° 0 mm 1 m/S 751 mmHg 48%
    19:00 +10°C° 0 mm 1 m/S 751 mmHg 53%
    20:00 +10°C° 0 mm 1 m/S 751 mmHg 49%
    21:00 +10°C° 0 mm 1 m/S 751 mmHg 45%
    22:00 +10°C° 0 mm 1 m/S 751 mmHg 41%
    23:00 +9°C° 0 mm 1 m/S 751 mmHg 40%
    Mehr zeigen